| time (UTC) | temp F | wind direction | speed MPH | gust MPH | rain 1hr in | rain 24hr in | rain mn in | humidity % | barometer mb |
| 20260831140948 | 88 | 172 | 9.0 | 10.0 | 0.00 | 0.00 | 0.00 | 1017.4 | |
| 20260831135951 | 88 | 153 | 6.0 | 7.0 | 0.00 | 0.00 | 0.00 | 1017.2 | |
| 20260831134954 | 88 | 149 | 11.0 | 9.0 | 0.00 | 0.00 | 0.00 | 1017.2 | |
| 20260831133956 | 88 | 132 | 10.0 | 12.0 | 0.00 | 0.00 | 0.00 | 1017.1 | |
| 20260831132959 | 87 | 121 | 10.0 | 9.0 | 0.00 | 0.00 | 0.00 | 1017.0 | |
| 20260831132001 | 88 | 100 | 7.0 | 7.0 | 0.00 | 0.00 | 0.00 | 1017.0 | |
| 20260831131001 | 88 | 172 | 4.0 | 3.0 | 0.00 | 0.00 | 0.00 | 1016.9 | |
| 20260831125957 | 88 | 200 | 10.0 | 4.0 | 0.00 | 0.00 | 0.00 | 1017.0 | |
| 20260831124959 | 89 | 180 | 5.0 | 9.0 | 0.00 | 0.00 | 0.00 | 1017.1 | |
| 20260831124002 | 89 | 132 | 5.0 | 7.0 | 0.00 | 0.00 | 0.00 | 1017.2 | |
| 20260831123005 | 88 | 111 | 6.0 | 3.0 | 0.00 | 0.00 | 0.00 | 1017.2 | |
| 20260831122007 | 87 | 145 | 9.0 | 6.0 | 0.00 | 0.00 | 0.00 | 1017.3 | |
| 20260831121006 | 89 | 75 | 2.0 | 5.0 | 0.00 | 0.00 | 0.00 | 1017.3 | |
| 20260831120007 | 88 | 132 | 8.0 | 5.0 | 0.00 | 0.00 | 0.00 | 1017.5 | |
| 20260831115003 | 87 | 125 | 0.0 | 1.0 | 0.00 | 0.00 | 0.00 | 1017.6 | |
| 20260831114006 | 87 | 121 | 4.0 | 3.0 | 0.00 | 0.00 | 0.00 | 1017.8 | |
| 20260831113009 | 88 | 49 | 3.0 | 1.0 | 0.00 | 0.00 | 0.00 | 1017.7 | |
| 20260831112011 | 88 | 155 | 4.0 | 4.0 | 0.00 | 0.00 | 0.00 | 1017.7 | |
| 20260831111014 | 86 | 250 | 5.0 | 2.0 | 0.00 | 0.00 | 0.00 | 1017.7 | |
| 20260831110014 | 86 | 194 | 4.0 | 0.0 | 0.00 | 0.00 | 0.00 | 1017.9 | |
| 20260831105014 | 85 | 181 | 4.0 | 5.0 | 0.00 | 0.00 | 0.00 | 1018.0 | |
| 20260831104010 | 85 | 156 | 8.0 | 8.0 | 0.00 | 0.00 | 0.00 | 1018.1 | |
| 20260831103012 | 84 | 257 | 3.0 | 3.0 | 0.00 | 0.00 | 0.00 | 1018.1 | |
| 20260831102014 | 83 | 297 | 2.0 | 0.0 | 0.00 | 0.00 | 0.00 | 1018.2 | |
| 20260831101015 | 84 | 277 | 0.0 | 1.0 | 0.00 | 0.00 | 0.00 | 1018.3 | |
| 20260831100014 | 82 | 245 | 0.0 | 0.0 | 0.00 | 0.00 | 0.00 | 1018.4 | |
| 20260831095017 | 81 | 309 | 2.0 | 3.0 | 0.00 | 0.00 | 0.00 | 1018.4 | |
| 20260831094019 | 81 | 270 | 0.0 | 4.0 | 0.00 | 0.00 | 0.00 | 1018.5 | |
| 20260831093007 | 81 | 305 | 0.0 | 0.0 | 0.00 | 0.00 | 0.00 | 1018.5 | |
| 20260831092007 | 81 | 30 | 0.0 | 0.0 | 0.00 | 0.00 | 0.00 | 1018.6 | |
| 20260831091007 | 79 | 39 | 0.0 | 0.0 | 0.00 | 0.00 | 0.00 | 1018.6 | |
| 20260831090009 | 79 | 7 | 0.0 | 4.0 | 0.00 | 0.00 | 0.00 | 1018.6 | |
| 20260831085008 | 77 | 288 | 0.0 | 0.0 | 0.00 | 0.00 | 0.00 | 1018.7 | |
| 20260831084004 | 77 | 336 | 0.0 | 0.0 | 0.00 | 0.00 | 0.00 | 1018.7 | |
| 20260831083004 | 76 | 308 | 0.0 | 0.0 | 0.00 | 0.00 | 0.00 | 1018.4 | |
| 20260831081956 | 75 | 46 | 0.0 | 0.0 | 0.00 | 0.00 | 0.00 | 1018.7 | |
| 20260831080959 | 74 | 305 | 0.0 | 2.0 | 0.00 | 0.00 | 0.00 | 1018.7 | |
| 20260831075958 | 72 | 7 | 3.0 | 2.0 | 0.00 | 0.00 | 0.00 | 1018.6 | |
| 20260831074957 | 70 | 7 | 5.0 | 4.0 | 0.00 | 0.00 | 0.00 | 1018.6 | |
| 20260831073959 | 69 | 333 | 5.0 | 4.0 | 0.00 | 0.00 | 0.00 | 1018.6 | |
| 20260831073002 | 68 | 346 | 7.0 | 5.0 | 0.00 | 0.00 | 0.00 | 1018.5 | |
| 20260831071958 | 68 | 350 | 7.0 | 8.0 | 0.00 | 0.00 | 0.00 | 1018.5 | |
| 20260831070954 | 67 | 345 | 6.0 | 7.0 | 0.00 | 0.00 | 0.00 | 1018.5 | |
| 20260831065956 | 67 | 336 | 7.0 | 6.0 | 0.00 | 0.00 | 0.00 | 1018.5 | |
| 20260831064959 | 66 | 338 | 4.0 | 3.0 | 0.00 | 0.00 | 0.00 | 1018.4 | |
| 20260831064001 | 66 | 290 | 7.0 | 8.0 | 0.00 | 0.00 | 0.00 | 1018.3 | |
| 20260831062957 | 66 | 14 | 7.0 | 8.0 | 0.00 | 0.00 | 0.00 | 1018.2 | |
| 20260831061959 | 65 | 326 | 5.0 | 8.0 | 0.00 | 0.00 | 0.00 | 1018.0 | |
| 20260831060958 | 65 | 343 | 5.0 | 4.0 | 0.00 | 0.00 | 0.00 | 1017.4 | |
| 20260831055955 | 64 | 309 | 4.0 | 5.0 | 0.00 | 0.00 | 0.00 | 1016.9 | |
| 20260831054958 | 64 | 349 | 5.0 | 7.0 | 0.00 | 0.00 | 0.00 | 1016.8 | |
| 20260831053955 | 64 | 308 | 7.0 | 7.0 | 0.00 | 0.00 | 0.00 | 1016.7 | |
| 20260831052955 | 64 | 318 | 6.0 | 6.0 | 0.00 | 0.00 | 0.00 | 1016.6 | |
| 20260831051957 | 64 | 21 | 6.0 | 5.0 | 0.00 | 0.00 | 0.00 | 1016.2 | |
| 20260831051000 | 64 | 24 | 7.0 | 5.0 | 0.00 | 0.00 | 0.00 | 1016.4 | |
| 20260831050002 | 65 | 335 | 6.0 | 6.0 | 0.00 | 0.00 | 0.00 | 1017.1 | |
| 20260831044956 | 65 | 332 | 6.0 | 7.0 | 0.00 | 0.00 | 0.00 | 1017.0 | |
| 20260831043958 | 65 | 332 | 4.0 | 4.0 | 0.00 | 0.00 | 0.00 | 1017.0 | |
| 20260831043001 | 66 | 342 | 6.0 | 5.0 | 0.00 | 0.00 | 0.00 | 1017.0 | |
| 20260831042000 | 66 | 322 | 5.0 | 6.0 | 0.00 | 0.00 | 0.00 | 1017.0 | |
| 20260831041001 | 67 | 311 | 4.0 | 6.0 | 0.00 | 0.00 | 0.00 | 1016.9 | |
| 20260831040003 | 67 | 322 | 2.0 | 3.0 | 0.00 | 0.00 | 0.00 | 1016.7 | |
| 20260831035005 | 67 | 335 | 1.0 | 6.0 | 0.00 | 0.00 | 0.00 | 1016.7 | |
| 20260831034000 | 67 | 176 | 0.0 | 0.0 | 0.00 | 0.00 | 0.00 | 1016.7 | |
| 20260831033003 | 68 | 34 | 1.0 | 1.0 | 0.00 | 0.00 | 0.00 | 1016.7 | |
| 20260831032005 | 68 | 349 | 6.0 | 5.0 | 0.00 | 0.00 | 0.00 | 1016.6 | |
| 20260831031008 | 68 | 316 | 4.0 | 4.0 | 0.00 | 0.00 | 0.00 | 1016.7 | |
| 20260831030005 | 68 | 338 | 1.0 | 1.0 | 0.00 | 0.00 | 0.00 | 1016.6 | |
| 20260831025008 | 68 | 11 | 5.0 | 1.0 | 0.00 | 0.00 | 0.00 | 1016.6 | |
| 20260831024010 | 69 | 345 | 2.0 | 2.0 | 0.00 | 0.00 | 0.00 | 1016.6 | |
| 20260831023002 | 69 | 66 | 1.0 | 2.0 | 0.00 | 0.00 | 0.00 | 1016.5 | |
| 20260831021959 | 69 | 269 | 4.0 | 2.0 | 0.00 | 0.00 | 0.00 | 1016.4 | |
| 20260831021002 | 69 | 335 | 1.0 | 3.0 | 0.00 | 0.00 | 0.00 | 1016.3 | |
| 20260831020004 | 70 | 328 | 3.0 | 3.0 | 0.00 | 0.00 | 0.00 | 1016.4 | |
| 20260831015007 | 69 | 7 | 2.0 | 3.0 | 0.00 | 0.00 | 0.00 | 1016.3 | |
| 20260831014009 | 70 | 359 | 5.0 | 4.0 | 0.00 | 0.00 | 0.00 | 1016.3 | |
| 20260831013012 | 70 | 325 | 6.0 | 7.0 | 0.00 | 0.00 | 0.00 | 1016.3 | |
| 20260831012007 | 70 | 315 | 6.0 | 5.0 | 0.00 | 0.00 | 0.00 | 1016.3 | |
| 20260831011005 | 71 | 346 | 0.0 | 0.0 | 0.00 | 0.00 | 0.00 | 1016.2 | |
| 20260831010003 | 70 | 7 | 0.0 | 0.0 | 0.00 | 0.00 | 0.00 | 1016.1 | |
| 20260831005006 | 71 | 7 | 0.0 | 0.0 | 0.00 | 0.00 | 0.00 | 1016.1 | |
| 20260831004000 | 71 | 7 | 0.0 | 0.0 | 0.00 | 0.00 | 0.00 | 1016.0 | |
| 20260831003001 | 72 | 55 | 1.0 | 0.0 | 0.00 | 0.00 | 0.00 | 1016.0 | |
| 20260831001958 | 72 | 280 | 0.0 | 1.0 | 0.00 | 0.00 | 0.00 | 1015.8 | |
| 20260831000952 | 72 | 314 | 4.0 | 3.0 | 0.00 | 0.00 | 0.00 | 1015.7 | |
| 20260830235955 | 72 | 31 | 5.0 | 2.0 | 0.00 | 0.00 | 0.00 | 1015.7 | |
| 20260830234954 | 72 | 322 | 2.0 | 3.0 | 0.00 | 0.00 | 0.00 | 1015.8 | |
| 20260830233955 | 72 | 27 | 3.0 | 1.0 | 0.00 | 0.00 | 0.00 | 1015.7 | |
| 20260830232954 | 72 | 284 | 2.0 | 3.0 | 0.00 | 0.00 | 0.00 | 1015.8 | |
| 20260830231947 | 73 | 305 | 3.0 | 3.0 | 0.00 | 0.00 | 0.00 | 1016.0 | |
| 20260830230950 | 73 | 343 | 2.0 | 3.0 | 0.00 | 0.00 | 0.00 | 1015.7 | |
| 20260830225941 | 73 | 319 | 0.0 | 0.0 | 0.00 | 0.00 | 0.00 | 1015.7 | |
| 20260830224943 | 73 | 325 | 1.0 | 1.0 | 0.00 | 0.00 | 0.00 | 1015.7 | |
| 20260830223946 | 73 | 190 | 0.0 | 0.0 | 0.00 | 0.00 | 0.00 | 1015.7 | |
| 20260830222948 | 74 | 190 | 0.0 | 0.0 | 0.00 | 0.00 | 0.00 | 1015.7 | |
| 20260830221948 | 75 | 190 | 0.0 | 0.0 | 0.00 | 0.00 | 0.00 | 1015.6 | |
| 20260830220950 | 75 | 190 | 0.0 | 0.0 | 0.00 | 0.00 | 0.00 | 1015.5 | |
| 20260830215953 | 75 | 190 | 0.0 | 0.0 | 0.00 | 0.00 | 0.00 | 1015.5 | |
| 20260830214947 | 75 | 190 | 0.0 | 0.0 | 0.00 | 0.00 | 0.00 | 1015.4 | |
| 20260830213947 | 76 | 203 | 2.0 | 1.0 | 0.00 | 0.00 | 0.00 | 1015.4 | |
| 20260830212949 | 77 | 181 | 2.0 | 1.0 | 0.00 | 0.00 | 0.00 | 1015.3 | |
| 20260830211944 | 77 | 186 | 2.0 | 2.0 | 0.00 | 0.00 | 0.00 | 1015.2 | |
| 20260830210946 | 77 | 160 | 0.0 | 0.0 | 0.00 | 0.00 | 0.00 | 1015.2 | |
| 20260830205949 | 77 | 177 | 2.0 | 2.0 | 0.00 | 0.00 | 0.00 | 1015.1 | |
| 20260830204951 | 77 | 183 | 0.0 | 0.0 | 0.00 | 0.00 | 0.00 | 1015.0 | |
| 20260830203941 | 78 | 203 | 1.0 | 0.0 | 0.00 | 0.00 | 0.00 | 1015.1 | |
| 20260830202944 | 79 | 212 | 0.0 | 0.0 | 0.00 | 0.00 | 0.00 | 1014.9 | |
| 20260830201943 | 79 | 212 | 0.0 | 0.0 | 0.00 | 0.00 | 0.00 | 1014.8 | |
| 20260830200944 | 79 | 212 | 0.0 | 0.0 | 0.00 | 0.00 | 0.00 | 1014.7 | |
| 20260830195939 | 79 | 212 | 0.0 | 0.0 | 0.00 | 0.00 | 0.00 | 1014.7 | |
| 20260830194942 | 80 | 212 | 0.0 | 0.0 | 0.00 | 0.00 | 0.00 | 1014.7 | |
| 20260830193944 | 80 | 212 | 0.0 | 0.0 | 0.00 | 0.00 | 0.00 | 1014.5 | |
| 20260830192940 | 81 | 212 | 0.0 | 0.0 | 0.00 | 0.00 | 0.00 | 1014.4 | |
| 20260830191943 | 81 | 212 | 0.0 | 0.0 | 0.00 | 0.00 | 0.00 | 1014.3 | |
| 20260830190943 | 82 | 215 | 2.0 | 3.0 | 0.00 | 0.00 | 0.00 | 1014.2 | |
| 20260830185946 | 82 | 226 | 3.0 | 3.0 | 0.00 | 0.00 | 0.00 | 1014.1 | |
| 20260830184948 | 83 | 243 | 0.0 | 0.0 | 0.00 | 0.00 | 0.00 | 1014.0 | |
| 20260830184023 | 82 | 246 | 3.0 | 3.0 | 0.00 | 0.00 | 0.00 | 1014.1 | |
| 20260830183951 | 82 | 246 | 3.0 | 3.0 | 0.00 | 0.00 | 0.00 | 1014.1 | |
| 20260830182953 | 83 | 219 | 3.0 | 4.0 | 0.00 | 0.00 | 0.00 | 1014.0 | |
| 20260830181945 | 84 | 214 | 1.0 | 0.0 | 0.00 | 0.00 | 0.00 | 1014.0 | |
| 20260830180947 | 84 | 226 | 3.0 | 3.0 | 0.00 | 0.00 | 0.00 | 1014.0 | |
| 20260830175950 | 84 | 264 | 4.0 | 5.0 | 0.00 | 0.00 | 0.00 | 1013.9 | |
| 20260830174945 | 85 | 212 | 3.0 | 7.0 | 0.00 | 0.00 | 0.00 | 1013.9 | |
| 20260830173948 | 86 | 224 | 6.0 | 6.0 | 0.00 | 0.00 | 0.00 | 1013.9 | |
| 20260830172950 | 86 | 219 | 4.0 | 9.0 | 0.00 | 0.00 | 0.00 | 1013.8 | |
| 20260830171950 | 86 | 232 | 7.0 | 6.0 | 0.00 | 0.00 | 0.00 | 1013.8 | |
| 20260830170945 | 87 | 181 | 6.0 | 9.0 | 0.00 | 0.00 | 0.00 | 1013.7 | |
| 20260830165947 | 86 | 257 | 7.0 | 7.0 | 0.00 | 0.00 | 0.00 | 1013.7 | |
| 20260830164948 | 88 | 239 | 7.0 | 7.0 | 0.00 | 0.00 | 0.00 | 1013.6 | |
| 20260830163950 | 88 | 177 | 7.0 | 8.0 | 0.00 | 0.00 | 0.00 | 1013.6 | |
| 20260830162950 | 88 | 215 | 6.0 | 7.0 | 0.00 | 0.00 | 0.00 | 1013.6 | |
| 20260830161952 | 89 | 201 | 9.0 | 14.0 | 0.00 | 0.00 | 0.00 | 1013.5 | |
| 20260830160949 | 89 | 218 | 5.0 | 5.0 | 0.00 | 0.00 | 0.00 | 1013.5 | |
| 20260830155941 | 88 | 167 | 10.0 | 13.0 | 0.00 | 0.00 | 0.00 | 1013.4 | |
| 20260830154943 | 89 | 205 | 10.0 | 10.0 | 0.00 | 0.00 | 0.00 | 1013.4 | |
| 20260830153944 | 89 | 156 | 10.0 | 8.0 | 0.00 | 0.00 | 0.00 | 1013.4 | |
| 20260830152936 | 89 | 208 | 5.0 | 7.0 | 0.00 | 0.00 | 0.00 | 1013.3 | |
| 20260830151931 | 89 | 212 | 8.0 | 4.0 | 0.00 | 0.00 | 0.00 | 1013.4 | |
| 20260830150925 | 89 | 222 | 10.0 | 14.0 | 0.00 | 0.00 | 0.00 | 1013.6 | |
| 20260830145927 | 89 | 240 | 12.0 | 6.0 | 0.00 | 0.00 | 0.00 | 1013.6 | |
| 20260830144921 | 89 | 195 | 13.0 | 11.0 | 0.00 | 0.00 | 0.00 | 1013.6 | |
| 20260830143949 | 90 | 143 | 8.0 | 10.0 | 0.00 | 0.00 | 0.00 | 1013.6 | |
| 20260830143918 | 90 | 143 | 8.0 | 10.0 | 0.00 | 0.00 | 0.00 | 1013.6 | |
| 20260830142915 | 90 | 208 | 8.0 | 11.0 | 0.00 | 0.00 | 0.00 | 1013.8 | |
| 20260830141917 | 91 | 284 | 7.0 | 4.0 | 0.00 | 0.00 | 0.00 | 1013.9 |